Flag for U.S.A. Weather past 2 weeks in Fort Worth, Texas, U.S.A.

Now
85 °F

Sunny.


Feels Like: 91 °F
Forecast: 78 / 94 °F
Wind: 18 mph from South

Location: Meacham International Airport

Current Time: Jul 5, 2015 at 10:42:19 AM

Latest Report: Jul 5, 2015 at 9:53 AM


Visibility: 10 mi

Pressure: 29.99 "Hg

Humidity: 65%

Dew point: 72 °F

Location of Fort WorthLocation

Historic Weather in Fort Worth — Graph

°F

Fort Worth temperature yesterday

Maximum temperature yesterday: 94 °F (at 3:53 PM)
Minimum temperature yesterday: 77 °F (at 6:53 AM)
Average temperature yesterday: 86 °F

Past Weeks' High & Low Weather Summary

 TemperatureHumidityPressure
High95 °F (Jun 25, 4:53 PM)96% (Jun 27, 4:53 AM)30.15 "Hg (Jun 27, 4:53 AM)
Low70 °F (Jun 28, 5:53 AM)31% (Jun 28, 2:53 PM)29.83 "Hg (Jul 2, 7:53 PM)
Average84 °F64%29.97 "Hg
* Reported Jun 20 8:53 AM — Jul 5 8:53 AM, Fort Worth, Weather by CustomWeather, © 2015

Note: Actual official high and low records may vary slightly from our data, if they occured in-between our weather recording intervals... More about our weather records

Advertising

Fort Worth weather history for previous 24 hours

 ConditionsComfort  
Time TempWeatherWind HumidityBarometerVisibility
8:53 AM
Sun, Jul 5
83 °FSunny.15 mph70%29.99 "Hg10 mi
7:53 AM80 °FSunny.10 mph79%29.99 "Hg10 mi
6:53 AM78 °FClear.9 mph82%29.98 "Hg10 mi
5:53 AM79 °FClear.10 mph79%29.96 "Hg10 mi
4:53 AM79 °FClear.12 mph82%29.94 "Hg10 mi
3:53 AM80 °FClear.14 mph79%29.93 "Hg10 mi
2:53 AM81 °FClear.13 mph77%29.93 "Hg10 mi
1:53 AM82 °FClear.13 mph74%29.93 "Hg10 mi
12:53 AM83 °FClear.13 mph70%29.94 "Hg10 mi
11:53 PM
Sat, Jul 4
84 °FClear.13 mph67%29.93 "Hg10 mi
10:53 PM86 °FClear.14 mph61%29.92 "Hg10 mi
9:53 PM88 °FClear.12 mph55%29.89 "Hg10 mi
8:53 PM89 °FSunny.13 mph52%29.85 "Hg10 mi
7:53 PM91 °FSunny.15 mph50%29.85 "Hg10 mi
6:53 PM93 °FScattered clouds.10 mph46%29.85 "Hg10 mi
5:53 PM94 °FSunny.9 mph43%29.85 "Hg10 mi
4:53 PM94 °FPassing clouds.10 mph43%29.88 "Hg10 mi
3:53 PM94 °FSunny.12 mph46%29.89 "Hg10 mi
2:53 PM93 °FSunny.12 mph47%29.90 "Hg10 mi
1:53 PM92 °FSunny.13 mph52%29.92 "Hg10 mi
12:53 PM91 °FSunny.14 mph57%29.93 "Hg10 mi
11:53 AM89 °FSunny.12 mph57%29.95 "Hg10 mi
10:53 AM86 °FSunny.8 mph63%29.95 "Hg10 mi
Weather by CustomWeather, © 2015

See weather overviewHow to use our weather pages